Plattsburgh, NY

6:37 AM EDT on October 20, 2017 (GMT -0400)
Plattsburgh International

Weather History for KPBG - November, 2012

Change the Weather History Date:

Wednesday, November 21, 2012

  Actual Average Record
Temperature  
Mean Temperature 37 °F 35 °F  
Max Temperature 49 °F 43 °F 61 °F (1954)
Min Temperature 25 °F 26 °F 10 °F (1987)
Degree Days  
Heating Degree Days 28 30  
Month to date heating degree days 597 557  
Since 1 July heating degree days 1255 1340  
Cooling Degree Days 0 0  
Month to date cooling degree days 0  
Year to date cooling degree days 346  
Moisture  
Dew Point 30 °F    
Average Humidity 81    
Maximum Humidity 100    
Minimum Humidity 61    
Precipitation  
Precipitation 0.00 in - 1.42 in (1954)
Month to date precipitation 0.37  
Year to date precipitation 24.48  
Sea Level Pressure  
Sea Level Pressure 30.22 in    
Wind  
Wind Speed 2 mph (SE)    
Max Wind Speed 9 mph    
Max Gust Speed 12 mph    
Visibility 8 miles    
Events      
T = Trace of Precipitation, MM = Missing Value Source: NWS Daily Summary

Daily Weather History Graph

Daily Weather History Graph

Search for Another Location

Airport or City:

Trip Planner

Search our weather history database for the weather conditions in past years. The results will help you decide how hot, cold, wet, or windy it might be!

Date:

Astronomy

Nov. 21, 2012 Rise Set
Actual Time 6:59 AM EST 4:20 PM EST
Civil Twilight 6:26 AM EST 4:52 PM EST
Nautical Twilight 5:51 AM EST 5:28 PM EST
Astronomical Twilight 5:16 AM EST 6:02 PM EST
Moon 12:49 PM EST (11/21) 12:00 AM EST (11/21)
Length of Visible Light 10h 25m
Length of Day
9h 21m
First Quarter, 61% of the Moon is Illuminated
Nov 21
First Quarter
Nov 28
Full
Dec 6
Last Quarter
Dec 13
New
Dec 20
First Quarter

Hourly Weather History & Observations

Time (EST) Temp. Windchill Dew Point Humidity Pressure Visibility Wind Dir Wind Speed Gust Speed Precip Events Conditions
12:53 AM 30.9 °F - 28.9 °F 92% 30.19 in 9.0 mi Calm Calm - N/A   Overcast
1:53 AM 32.0 °F - 28.9 °F 88% 30.20 in 10.0 mi Calm Calm - N/A   Overcast
2:53 AM 30.0 °F - 28.0 °F 92% 30.19 in 9.0 mi Calm Calm - N/A   Partly Cloudy
3:53 AM 28.9 °F - 27.0 °F 92% 30.20 in 8.0 mi Calm Calm - N/A   Clear
4:53 AM 28.0 °F - 26.1 °F 92% 30.21 in 6.0 mi Calm Calm - N/A   Clear
5:53 AM 28.0 °F - 26.1 °F 92% 30.23 in 8.0 mi Calm Calm - N/A   Partly Cloudy
6:53 AM 28.9 °F - 28.0 °F 96% 30.25 in 9.0 mi Calm Calm - N/A   Overcast
7:53 AM 30.9 °F - 28.0 °F 89% 30.25 in 10.0 mi Calm Calm - N/A   Overcast
8:53 AM 37.9 °F 35.5 °F 30.9 °F 76% 30.25 in 10.0 mi SW 3.5 mph - N/A   Clear
9:53 AM 41.0 °F - 34.0 °F 76% 30.25 in 10.0 mi Calm Calm - N/A   Clear
10:53 AM 43.0 °F 38.8 °F 36.0 °F 76% 30.24 in 9.0 mi ESE 6.9 mph - N/A   Clear
11:53 AM 44.1 °F 39.0 °F 37.0 °F 76% 30.21 in 7.0 mi ESE 9.2 mph - N/A   Clear
12:53 PM 46.9 °F - 36.0 °F 66% 30.20 in 9.0 mi SE 8.1 mph - N/A   Clear
1:53 PM 48.0 °F - 36.0 °F 63% 30.19 in 10.0 mi SE 6.9 mph - N/A   Clear
2:53 PM 48.9 °F - 35.1 °F 59% 30.19 in 10.0 mi SE 5.8 mph - N/A   Clear
3:53 PM 46.9 °F - 36.0 °F 66% 30.21 in 10.0 mi ENE 3.5 mph - N/A   Clear
4:53 PM 37.0 °F 32.4 °F 32.0 °F 82% 30.21 in 10.0 mi NNW 5.8 mph - N/A   Clear
5:53 PM 34.0 °F - 30.9 °F 89% 30.22 in 10.0 mi Calm Calm - N/A   Clear
6:53 PM 32.0 °F - 30.0 °F 92% 30.22 in 10.0 mi Calm Calm - N/A   Clear
7:53 PM 30.9 °F - 28.9 °F 92% 30.22 in 8.0 mi Calm Calm - N/A   Clear
8:53 PM 28.9 °F - 28.0 °F 96% 30.22 in 5.0 mi Calm Calm - N/A   Clear
9:53 PM 28.9 °F - 27.0 °F 92% 30.23 in 5.0 mi Calm Calm - N/A   Clear
10:53 PM 27.0 °F 23.0 °F 25.0 °F 92% 30.22 in 5.0 mi SW 3.5 mph - N/A   Clear
11:53 PM 27.0 °F - 25.0 °F 92% 30.22 in 6.0 mi Calm Calm - N/A   Clear